Вернуться в каталог

STARLINK-37492

АктивенСвязьSSO
NORAD 68849·PAYLOAD·🇺🇸 United States

Запущен Apr 26, 2026 с Vandenberg Space Force Base

Loading…

Ближайшие Пролёты (ближайшие 24 часа)

TLE

СвежийSource: CelesTrak SupGP

Эпоха: Sep 15, 2026, 02:56 UTC

1 68849C 26094L   26258.12270833 -.00043946  00000+0 -13636-2 0  2581
2 68849  97.2836 271.3123 0001164  96.6964 236.8149 15.33476518    10

Отслеживайте STARLINK-37492 в реальном времени с AllMySat

Download on the App Store